"Period start","avg(HW err(1)/warn(2) (#))","avg(Visibility (m))","avg(Weather code (#))","avg(Precip intensity (mm/h))","min(HW err(1)/warn(2) (#))","max(HW err(1)/warn(2) (#))","std(HW err(1)/warn(2) (#))","med(HW err(1)/warn(2) (#))","min(Visibility (m))","max(Visibility (m))","std(Visibility (m))","med(Visibility (m))","min(Weather code (#))","max(Weather code (#))","std(Weather code (#))","med(Weather code (#))","min(Precip intensity (mm/h))","max(Precip intensity (mm/h))","std(Precip intensity (mm/h))","med(Precip intensity (mm/h))"
2013-11-21 00:00:00,2,24338,0,0.00,2,2,0,2,17739,42780,6971,21797,0,0,0,0,0.00,0.00,0.00,0.00
2013-11-21 00:10:00,2,36277,0,0.00,2,2,0,2,29891,42904,3864,36588,0,0,0,0,0.00,0.00,0.00,0.00
2013-11-21 00:20:00,2,38844,0,0.00,2,2,0,2,33158,47389,5037,36871,0,0,0,0,0.00,0.00,0.00,0.00
2013-11-21 00:30:00,2,46610,0,0.00,2,2,0,2,38027,50000,3675,46760,0,0,0,0,0.00,0.00,0.00,0.00
2013-11-21 00:40:00,2,48967,0,0.00,2,2,0,2,45353,50000,1560,50000,0,0,0,0,0.00,0.00,0.00,0.00
2013-11-21 00:50:00,2,48934,0,0.00,2,2,0,2,45467,50000,1486,49917,0,0,0,0,0.00,0.00,0.00,0.00
2013-11-21 01:00:00,2,49701,0,0.00,2,2,0,2,47155,50000,850,50000,0,0,0,0,0.00,0.00,0.00,0.00
2013-11-21 01:10:00,2,49671,0,0.00,2,2,0,2,47586,50000,729,50000,0,0,0,0,0.00,0.00,0.00,0.00
2013-11-21 01:20:00,2,48630,0,0.00,2,2,0,2,44709,50000,1743,49584,0,0,0,0,0.00,0.00,0.00,0.00
2013-11-21 01:30:00,2,49638,0,0.00,2,2,0,2,47330,50000,810,50000,0,0,0,0,0.00,0.00,0.00,0.00
2013-11-21 01:40:00,2,49182,0,0.00,2,2,0,2,46494,50000,1181,49904,0,0,0,0,0.00,0.00,0.00,0.00
2013-11-21 01:50:00,2,43516,0,0.00,2,2,0,2,37099,47355,3977,45473,0,0,0,0,0.00,0.00,0.00,0.00
2013-11-21 02:00:00,2,39590,0,0.00,2,2,0,2,26141,50000,7782,38413,0,0,0,0,0.00,0.00,0.00,0.00
2013-11-21 02:10:00,2,48723,0,0.00,2,2,0,2,41363,50000,2690,50000,0,0,0,0,0.00,0.00,0.00,0.00
2013-11-21 02:20:00,2,24592,57,0.04,2,2,0,2,12314,37139,7200,23066,0,71,28,71,0.00,0.25,0.08,0.00
2013-11-21 02:30:00,2,45886,14,0.00,2,2,0,2,30674,50000,6355,49963,0,71,28,0,0.00,0.00,0.00,0.00
2013-11-21 02:40:00,2,36647,21,0.01,2,2,0,2,15045,50000,13705,41542,0,71,33,0,0.00,0.05,0.02,0.00
2013-11-21 02:50:00,2,34711,50,0.03,2,2,0,2,15138,50000,12766,34144,0,71,33,71,0.00,0.15,0.05,0.00
2013-11-21 03:00:00,2,49426,0,0.00,2,2,0,2,47472,50000,910,50000,0,0,0,0,0.00,0.00,0.00,0.00
2013-11-21 03:10:00,2,49364,0,0.00,2,2,0,2,45052,50000,1498,50000,0,0,0,0,0.00,0.00,0.00,0.00
2013-11-21 03:20:00,2,34118,0,0.00,2,2,0,2,23686,45867,6359,34851,0,0,0,0,0.00,0.00,0.00,0.00
2013-11-21 03:30:00,2,28918,28,0.03,2,2,0,2,7419,45175,11094,29038,0,71,35,0,0.00,0.20,0.06,0.00
2013-11-21 03:40:00,2,16248,71,0.03,2,2,0,2,10241,25072,5467,14736,71,71,0,71,0.00,0.15,0.05,0.00
2013-11-21 03:50:00,2,17621,76,0.02,2,2,0,2,10608,29285,5467,16228,71,77,2,77,0.00,0.10,0.03,0.00
2013-11-21 04:00:00,2,28033,46,0.03,2,2,0,2,12389,46776,11315,25968,0,78,38,74,0.00,0.10,0.04,0.00
2013-11-21 04:10:00,2,22142,50,0.07,2,2,0,2,12503,46691,11128,16586,0,71,33,71,0.00,0.25,0.09,0.03
2013-11-21 04:20:00,2,14918,72,0.02,2,2,0,2,10340,21842,3282,15009,71,77,2,71,0.00,0.10,0.03,0.00
2013-11-21 04:30:00,2,10503,72,0.04,2,2,0,2,5643,13027,2120,11226,71,77,2,71,0.00,0.25,0.08,0.00
2013-11-21 04:40:00,2,13892,72,0.02,2,2,0,2,9496,19765,3114,13338,71,77,2,71,0.00,0.05,0.02,0.00
2013-11-21 04:50:00,2,14797,73,0.07,2,2,0,2,9567,20656,3646,14222,71,77,3,71,0.00,0.25,0.07,0.05
2013-11-21 05:00:00,2,7448,71,0.33,2,2,0,2,4002,16961,3491,6305,71,71,0,71,0.00,0.85,0.24,0.33
2013-11-21 05:10:00,2,8176,71,0.29,2,2,0,2,5434,11363,2115,7724,71,71,0,71,0.00,0.65,0.19,0.28
2013-11-21 05:20:00,2,12007,71,0.12,2,2,0,2,7932,17824,3443,11220,71,71,0,71,0.00,0.40,0.12,0.08
2013-11-21 05:30:00,2,21792,71,0.03,2,2,0,2,13394,34098,6345,21512,71,71,0,71,0.00,0.20,0.06,0.00
2013-11-21 05:40:00,2,17967,72,0.04,2,2,0,2,11517,28411,4950,16186,71,77,2,71,0.00,0.20,0.06,0.00
2013-11-21 05:50:00,2,11029,72,0.18,2,2,0,2,6264,15078,2697,11559,71,77,2,71,0.05,0.70,0.18,0.10
2013-11-21 06:00:00,2,9461,71,0.18,2,2,0,2,5947,15134,2412,8948,71,71,0,71,0.05,0.40,0.13,0.12
2013-11-21 06:10:00,2,11042,71,0.12,2,2,0,2,7663,15985,2247,10893,71,71,0,71,0.00,0.45,0.13,0.08
2013-11-21 06:20:00,2,27688,71,0.04,2,2,0,2,13852,40608,8930,28168,71,71,0,71,0.00,0.20,0.07,0.00
2013-11-21 06:30:00,2,30048,76,0.01,2,2,0,2,22214,32948,2889,30576,71,78,3,77,0.00,0.05,0.02,0.00
2013-11-21 06:40:00,2,15745,78,0.01,2,2,0,2,8921,24058,5103,15830,78,78,0,78,0.00,0.05,0.02,0.00
2013-11-21 06:50:00,2,5189,75,0.32,2,2,0,2,3303,9591,2134,4254,71,78,3,77,0.00,1.15,0.33,0.28
2013-11-21 07:00:00,2,4289,71,0.24,2,2,0,2,2667,6053,1050,4018,71,71,0,71,0.05,0.65,0.18,0.17
2013-11-21 07:10:00,2,5250,75,0.16,2,2,0,2,4118,6515,910,5490,71,77,3,77,0.05,0.45,0.15,0.08
2013-11-21 07:20:00,2,3050,71,0.80,2,2,0,2,2567,3501,280,3054,71,71,0,71,0.35,1.35,0.26,0.75
2013-11-21 07:30:00,2,4033,71,0.47,2,2,0,2,3309,4661,361,4016,71,71,0,71,0.20,1.05,0.23,0.40
2013-11-21 07:40:00,2,5397,71,0.37,2,2,0,2,3694,8491,1742,4548,71,71,0,71,0.10,0.75,0.21,0.33
2013-11-21 07:50:00,2,18298,74,0.02,2,2,0,2,9305,24480,5682,20259,71,78,3,71,0.00,0.15,0.05,0.00
2013-11-21 08:00:00,2,33560,47,0.00,2,2,0,2,22250,45092,7433,31936,0,78,38,78,0.00,0.00,0.00,0.00
2013-11-21 08:10:00,2,45948,0,0.00,2,2,0,2,41330,50000,2932,46596,0,0,0,0,0.00,0.00,0.00,0.00
2013-11-21 08:20:00,2,33467,14,0.01,2,2,0,2,17122,45927,9201,34082,0,71,28,0,0.00,0.05,0.02,0.00
2013-11-21 08:30:00,2,28441,78,0.00,2,2,0,2,18890,40265,6491,31437,77,78,0,78,0.00,0.00,0.00,0.00
2013-11-21 08:40:00,2,42172,55,0.00,2,2,0,2,33914,50000,4993,42256,0,78,36,78,0.00,0.00,0.00,0.00
2013-11-21 08:50:00,2,47189,0,0.00,2,2,0,2,41563,50000,3123,48044,0,0,0,0,0.00,0.00,0.00,0.00
2013-11-21 09:00:00,2,44985,0,0.00,2,2,0,2,40212,47941,2150,45250,0,0,0,0,0.00,0.00,0.00,0.00
2013-11-21 09:10:00,2,49791,0,0.00,2,2,0,2,49261,50000,279,50000,0,0,0,0,0.00,0.00,0.00,0.00
2013-11-21 09:20:00,2,45154,0,0.00,2,2,0,2,36610,50000,4430,46365,0,0,0,0,0.00,0.00,0.00,0.00
2013-11-21 09:30:00,2,46436,0,0.00,2,2,0,2,43069,50000,2624,45766,0,0,0,0,0.00,0.00,0.00,0.00
2013-11-21 09:40:00,2,36826,0,0.00,2,2,0,2,26818,45318,7197,37752,0,0,0,0,0.00,0.00,0.00,0.00
2013-11-21 09:50:00,2,31925,0,0.00,2,2,0,2,23001,42481,7395,30178,0,0,0,0,0.00,0.00,0.00,0.00
2013-11-21 10:00:00,2,43793,0,0.00,2,2,0,2,32965,50000,5065,44492,0,0,0,0,0.00,0.00,0.00,0.00
2013-11-21 10:10:00,2,46890,0,0.00,2,2,0,2,41720,50000,3144,48021,0,0,0,0,0.00,0.00,0.00,0.00
2013-11-21 10:20:00,2,48000,0,0.00,2,2,0,2,40623,50000,3186,50000,0,0,0,0,0.00,0.00,0.00,0.00
2013-11-21 10:30:00,2,48615,0,0.00,2,2,0,2,43368,50000,2184,49651,0,0,0,0,0.00,0.00,0.00,0.00
2013-11-21 10:40:00,2,48809,0,0.00,2,2,0,2,45722,50000,1519,49835,0,0,0,0,0.00,0.00,0.00,0.00
2013-11-21 10:50:00,2,38322,0,0.00,2,2,0,2,29373,50000,7697,36229,0,0,0,0,0.00,0.00,0.00,0.00
2013-11-21 11:00:00,2,40456,0,0.00,2,2,0,2,25394,50000,9026,44468,0,0,0,0,0.00,0.00,0.00,0.00
2013-11-21 11:10:00,2,45871,0,0.00,2,2,0,2,42599,49749,2329,44869,0,0,0,0,0.00,0.00,0.00,0.00
2013-11-21 11:20:00,2,39645,0,0.00,2,2,0,2,26655,50000,7534,40453,0,0,0,0,0.00,0.00,0.00,0.00
2013-11-21 11:30:00,2,29179,30,0.00,2,2,0,2,23796,33987,3661,29774,0,78,37,0,0.00,0.00,0.00,0.00
2013-11-21 11:40:00,2,44203,31,0.00,2,2,0,2,24386,50000,9237,49684,0,78,38,0,0.00,0.00,0.00,0.00
2013-11-21 11:50:00,2,49358,0,0.00,2,2,0,2,46574,50000,1287,50000,0,0,0,0,0.00,0.00,0.00,0.00
2013-11-21 12:00:00,2,49379,0,0.00,2,2,0,2,46652,50000,1224,50000,0,0,0,0,0.00,0.00,0.00,0.00
2013-11-21 12:10:00,2,48981,0,0.00,2,2,0,2,42708,50000,2177,50000,0,0,0,0,0.00,0.00,0.00,0.00
2013-11-21 12:20:00,2,49117,0,0.00,2,2,0,2,44891,50000,1530,50000,0,0,0,0,0.00,0.00,0.00,0.00
2013-11-21 12:30:00,2,41938,0,0.00,2,2,0,2,28374,50000,7297,42653,0,0,0,0,0.00,0.00,0.00,0.00
2013-11-21 12:40:00,2,37017,0,0.00,2,2,0,2,24510,50000,7945,35489,0,0,0,0,0.00,0.00,0.00,0.00
2013-11-21 12:50:00,2,49738,0,0.00,2,2,0,2,48568,50000,487,50000,0,0,0,0,0.00,0.00,0.00,0.00
2013-11-21 13:00:00,2,47442,0,0.00,2,2,0,2,43466,50000,2423,47370,0,0,0,0,0.00,0.00,0.00,0.00
2013-11-21 13:10:00,2,37244,0,0.00,2,2,0,2,23300,50000,9063,35806,0,0,0,0,0.00,0.00,0.00,0.00
2013-11-21 13:20:00,2,45484,0,0.00,2,2,0,2,29177,50000,6830,49471,0,0,0,0,0.00,0.00,0.00,0.00
2013-11-21 13:30:00,2,27263,45,0.00,2,2,0,2,24150,35638,3029,26793,0,78,37,71,0.00,0.00,0.00,0.00
2013-11-21 13:40:00,2,33886,23,0.00,2,2,0,2,24151,47389,7206,33242,0,78,36,0,0.00,0.00,0.00,0.00
2013-11-21 13:50:00,2,41660,0,0.00,2,2,0,2,35312,49078,4112,40437,0,0,0,0,0.00,0.00,0.00,0.00
2013-11-21 14:00:00,2,39486,0,0.00,2,2,0,2,26224,47464,6126,41652,0,0,0,0,0.00,0.00,0.00,0.00
2013-11-21 14:10:00,2,37697,0,0.00,2,2,0,2,31405,44192,4522,37428,0,0,0,0,0.00,0.00,0.00,0.00
2013-11-21 14:20:00,2,29142,0,0.00,2,2,0,2,19321,41133,7949,26468,0,0,0,0,0.00,0.00,0.00,0.00
2013-11-21 14:30:00,2,34147,0,0.00,2,2,0,2,23838,50000,9113,32500,0,0,0,0,0.00,0.00,0.00,0.00
2013-11-21 14:40:00,2,20090,0,0.00,2,2,0,2,5676,45921,14691,13500,0,0,0,0,0.00,0.00,0.00,0.00
2013-11-21 14:50:00,2,18660,7,0.00,2,2,0,2,7287,39163,11730,11839,0,10,5,10,0.00,0.00,0.00,0.00
2013-11-21 15:00:00,2,41124,1,0.00,2,2,0,2,25537,47227,6914,43761,0,10,3,0,0.00,0.00,0.00,0.00
2013-11-21 15:10:00,2,48962,0,0.00,2,2,0,2,46191,50000,1393,49951,0,0,0,0,0.00,0.00,0.00,0.00
2013-11-21 15:20:00,2,46110,0,0.00,2,2,0,2,40372,50000,2768,46182,0,0,0,0,0.00,0.00,0.00,0.00
2013-11-21 15:30:00,2,49422,0,0.00,2,2,0,2,47081,50000,895,50000,0,0,0,0,0.00,0.00,0.00,0.00
2013-11-21 15:40:00,2,49470,0,0.00,2,2,0,2,45627,50000,1310,50000,0,0,0,0,0.00,0.00,0.00,0.00
2013-11-21 15:50:00,2,49974,0,0.00,2,2,0,2,49738,50000,79,50000,0,0,0,0,0.00,0.00,0.00,0.00
2013-11-21 16:00:00,2,49957,0,0.00,2,2,0,2,49566,50000,130,50000,0,0,0,0,0.00,0.00,0.00,0.00
2013-11-21 16:10:00,2,49741,0,0.00,2,2,0,2,48628,50000,519,50000,0,0,0,0,0.00,0.00,0.00,0.00
2013-11-21 16:20:00,2,49552,0,0.00,2,2,0,2,48279,50000,644,50000,0,0,0,0,0.00,0.00,0.00,0.00
2013-11-21 16:30:00,2,49307,0,0.00,2,2,0,2,45898,50000,1281,50000,0,0,0,0,0.00,0.00,0.00,0.00
2013-11-21 16:40:00,2,49448,0,0.00,2,2,0,2,47764,50000,798,50000,0,0,0,0,0.00,0.00,0.00,0.00
2013-11-21 16:50:00,2,49165,0,0.00,2,2,0,2,45659,50000,1671,50000,0,0,0,0,0.00,0.00,0.00,0.00
2013-11-21 17:00:00,2,50000,0,0.00,2,2,0,2,50000,50000,0,50000,0,0,0,0,0.00,0.00,0.00,0.00
2013-11-21 17:10:00,2,49738,0,0.00,2,2,0,2,48620,50000,525,50000,0,0,0,0,0.00,0.00,0.00,0.00
2013-11-21 17:20:00,2,49203,0,0.00,2,2,0,2,45234,50000,1391,49821,0,0,0,0,0.00,0.00,0.00,0.00
2013-11-21 17:30:00,2,49564,0,0.00,2,2,0,2,46452,50000,1065,50000,0,0,0,0,0.00,0.00,0.00,0.00
2013-11-21 17:40:00,2,49228,0,0.00,2,2,0,2,44239,50000,1763,50000,0,0,0,0,0.00,0.00,0.00,0.00
2013-11-21 17:50:00,2,49073,0,0.00,2,2,0,2,44152,50000,1904,50000,0,0,0,0,0.00,0.00,0.00,0.00
2013-11-21 18:00:00,2,48476,0,0.00,2,2,0,2,42589,50000,2497,50000,0,0,0,0,0.00,0.00,0.00,0.00
2013-11-21 18:10:00,2,50000,0,0.00,2,2,0,2,50000,50000,0,50000,0,0,0,0,0.00,0.00,0.00,0.00
2013-11-21 18:20:00,2,50000,0,0.00,2,2,0,2,50000,50000,0,50000,0,0,0,0,0.00,0.00,0.00,0.00
2013-11-21 18:30:00,2,49999,0,0.00,2,2,0,2,49994,50000,2,50000,0,0,0,0,0.00,0.00,0.00,0.00
2013-11-21 18:40:00,2,49905,0,0.00,2,2,0,2,49048,50000,286,50000,0,0,0,0,0.00,0.00,0.00,0.00
2013-11-21 18:50:00,2,49073,0,0.00,2,2,0,2,45653,50000,1397,50000,0,0,0,0,0.00,0.00,0.00,0.00
2013-11-21 19:00:00,2,46199,0,0.00,2,2,0,2,40030,50000,3651,47365,0,0,0,0,0.00,0.00,0.00,0.00
2013-11-21 19:10:00,2,48845,0,0.00,2,2,0,2,45205,50000,1774,50000,0,0,0,0,0.00,0.00,0.00,0.00
2013-11-21 19:20:00,2,47669,0,0.00,2,2,0,2,42631,50000,2486,48240,0,0,0,0,0.00,0.00,0.00,0.00
2013-11-21 19:30:00,2,46900,0,0.00,2,2,0,2,38676,50000,4185,48744,0,0,0,0,0.00,0.00,0.00,0.00
2013-11-21 19:40:00,2,14254,61,0.03,2,2,0,2,7953,27991,5423,12201,0,78,30,77,0.00,0.10,0.03,0.03
2013-11-21 19:50:00,2,12118,78,0.00,2,2,0,2,10974,14364,1078,11872,77,78,0,78,0.00,0.00,0.00,0.00
2013-11-21 20:00:00,2,11849,78,0.00,2,2,0,2,9072,13381,1451,12106,78,78,0,78,0.00,0.00,0.00,0.00
2013-11-21 20:10:00,2,9063,78,0.01,2,2,0,2,6803,12856,1835,8760,78,78,0,78,0.00,0.05,0.02,0.00
2013-11-21 20:20:00,2,7707,78,0.02,2,2,0,2,6363,10463,1162,7756,78,78,0,78,0.00,0.05,0.02,0.00
2013-11-21 20:30:00,2,12280,78,0.00,2,2,0,2,8737,17272,2459,12302,78,78,0,78,0.00,0.00,0.00,0.00
2013-11-21 20:40:00,2,11592,53,0.02,2,2,0,2,5821,19394,4084,10820,0,78,35,74,0.00,0.05,0.02,0.00
2013-11-21 20:50:00,2,8156,78,0.04,2,2,0,2,6153,11841,1703,7762,78,78,0,78,0.00,0.10,0.03,0.05
2013-11-21 21:00:00,2,11007,78,0.03,2,2,0,2,4943,26653,6168,8764,78,78,0,78,0.00,0.15,0.04,0.03
2013-11-21 21:10:00,2,48654,8,0.00,2,2,0,2,39888,50000,3015,50000,0,78,23,0,0.00,0.00,0.00,0.00
2013-11-21 21:20:00,2,49189,0,0.00,2,2,0,2,44021,50000,1836,50000,0,0,0,0,0.00,0.00,0.00,0.00
2013-11-21 21:30:00,2,49250,0,0.00,2,2,0,2,42495,50000,2252,50000,0,0,0,0,0.00,0.00,0.00,0.00
2013-11-21 21:40:00,2,47923,0,0.00,2,2,0,2,43510,50000,2282,48724,0,0,0,0,0.00,0.00,0.00,0.00
2013-11-21 21:50:00,2,49621,0,0.00,2,2,0,2,46209,50000,1137,50000,0,0,0,0,0.00,0.00,0.00,0.00
2013-11-21 22:00:00,2,32241,22,0.00,2,2,0,2,10991,50000,15171,39204,0,78,34,0,0.00,0.00,0.00,0.00
2013-11-21 22:10:00,2,9877,76,0.12,2,2,0,2,4909,16505,3769,9060,71,78,3,77,0.00,0.35,0.12,0.08
2013-11-21 22:20:00,2,4770,71,0.31,2,2,0,2,2773,7038,1416,4824,71,71,0,71,0.15,0.55,0.11,0.30
2013-11-21 22:30:00,2,5178,72,0.15,2,2,0,2,3230,8108,1780,4400,71,77,2,71,0.05,0.35,0.10,0.12
2013-11-21 22:40:00,2,10635,77,0.06,2,2,0,2,6842,16066,3412,9986,77,78,0,77,0.00,0.15,0.05,0.05
2013-11-21 22:50:00,2,11330,75,0.02,2,2,0,2,7679,13813,1901,12079,71,78,3,77,0.00,0.10,0.03,0.00
2013-11-21 23:00:00,2,12616,77,0.02,2,2,0,2,10672,14752,1445,12707,77,78,0,77,0.00,0.05,0.02,0.00
2013-11-21 23:10:00,2,9793,75,0.07,2,2,0,2,6500,13149,2179,9749,71,77,3,77,0.00,0.15,0.04,0.05
2013-11-21 23:20:00,2,14833,73,0.06,2,2,0,2,9521,21847,4577,14427,71,77,3,71,0.00,0.25,0.08,0.03
2013-11-21 23:30:00,2,15026,77,0.01,2,2,0,2,10290,18353,2281,14962,77,78,0,77,0.00,0.05,0.02,0.00
2013-11-21 23:40:00,2,9931,77,0.09,2,2,0,2,5746,14424,3063,8890,71,78,2,78,0.00,0.40,0.12,0.05
2013-11-21 23:50:00,2,9666,71,0.13,2,2,0,2,6236,12904,2422,10052,71,71,0,71,0.05,0.35,0.09,0.10
